Skip Page Navigation
NASA JPL Caltech
NASA Logo - Jet Propulsion Laboratory + View the NASA Portal
+ Center for Near-Earth Object Studies
JPL Home Earth Solar System Stars & Galaxies Technology
JPL Solar System Dynamics
BODIES ORBITS EPHEMERIDES TOOLS PHYSICAL DATA DISCOVERY FAQ SITE MAP

Significant website upgrade scheduled for September 27. More details available here.

JPL Small-Body Database Browser
Search: [ help ]  
85325 (1995 MO1)
Classification: Main-belt Asteroid          SPK-ID: 2085325
Ephemeris | Orbit Diagram | Orbital Elements | Mission Design | Physical Parameters | Discovery Circumstances | Close-Approach Data ]

[ show orbit diagram ]
Orbital Elements at Epoch 2459396.5 (2021-Jul-01.0) TDB
Reference: JPL 26 (heliocentric ecliptic J2000)
 Element Value Uncertainty (1-sigma)   Units 
e .1070990860432276 4.4691e-08  
a 3.098191184845302 1.8245e-08 au
q 2.766377740561186 1.3847e-07 au
i 7.212216461792733 5.0097e-06 deg
node 192.0963196464231 2.8769e-05 deg
peri 354.6680705228204 3.4249e-05 deg
M 25.09182978492202 1.7165e-05 deg
tp 2459257.667680440986
(2021-Feb-12.16768044)
9.4999e-05 TDB
period 1991.868885994061
5.45
1.7595e-05
4.817e-08
d
yr
n .1807347875813315 1.5965e-09 deg/d
Q 3.430004629129418 2.0199e-08 au
  Orbit Determination Parameters
   # obs. used (total)      837  
   data-arc span      9486 days (25.97 yr)  
   first obs. used      1995-06-22  
   last obs. used      2021-06-11  
   planetary ephem.      DE441  
   SB-pert. ephem.      SB441-N16  
   condition code      0  
   norm. resid. RMS      .52183  
   source      ORB  
   producer      Otto Matic  
   solution date      2021-Jul-08 23:25:47  

Additional Information
 Earth MOID = 1.76841 au 
 Jupiter MOID = 1.52736 au 
 T_jup = 3.202 
[ show covariance matrix ]

Ephemeris | Orbit Diagram | Orbital Elements | Mission Design | Physical Parameters | Discovery Circumstances | Close-Approach Data ]

Physical Parameter Table
Parameter Symbol Value Units Sigma Reference Notes
absolute magnitude H 14.94   n/a MPO637171  
diameter diameter 5.375 km 0.270 urn:nasa:pds:neowise_diameters_albedos::2.0[mainbelt] (http://adsabs.harvard.edu/abs/2011ApJ...741...68M)  
geometric albedo albedo 0.067   0.012 urn:nasa:pds:neowise_diameters_albedos::2.0[mainbelt] (http://adsabs.harvard.edu/abs/2011ApJ...741...68M)  

85325 (1995 MO1)          Discovered 1995-Jun-22 by Spacewatch at Kitt Peak
Reference: 20040830/Numbers.arcLast Updated: 2004-09-06

[ show close-approach data ]
Ephemeris | Orbit Diagram | Orbital Elements | Mission Design | Physical Parameters | Discovery Circumstances | Close-Approach Data ]
ABOUT SSD CREDITS/AWARDS PRIVACY/COPYRIGHT GLOSSARY LINKS
FirstGov 2021-Sep-22 05:31 UT
(server date/time)  
NASA Home Page
Site Manager:   Ryan S. Park
Webmaster  Alan B. Chamberlin